Kineis-5B

operational
NORAD ID: 62085 Int'l Des: 2024-219 Owner: KINEIS Country: F
LEOCIRCULARRETROGRADESSO

About Kineis-5B

Description loading...

Live Position

Loading 3D Globe...

Upcoming Passes

Altitude History

Altitude vs Time

uPlot chart will show altitude changes over time

Two-Line Element Set

1 62085U 24219E 26062.17946801 .00002166 00000-0 30711-3 0 9991
2 62085 97.9930 226.7124 0001070 217.5406 142.5730 14.78040858 68345
Epoch: Mar 3, 2026 • Age: 15 hours

Current Status

Altitude 660.6 km
Velocity 7.53 km/s
Sub-Earth Point -68.32°S, 2.54°W
Launch Date Nov 25, 2024
Age 1.2 years
Type other

Technical Details

Classification Payload
Mass 28.00 kg
Dry Mass 28.00 kg
Total Mass 28.00 kg
Length 0.40 m
Diameter 0.20 m
Span 1.60 m
Shape Box+ 2 pan + ant
Manufacturer KINEIS
Bus Type Cubesat 16U
Phase Status In Orbit
Owner/State KINEIS/F

Large Constellations

Loading constellations...